User: anonymous   Login
Location: Hastringsfeld
(50.9620°N, 10.4787°E)
Time: 21:59:34
(UTC+00:00)
Language:

Sich 1 - Orbit

View from above orbital plane
View from above orbital plane
View from above satellite
View from above satellite

Ground track
Ground track

The orbit data is extracted from the following two-line orbital elements,

1 23657U 95046A   24055.54382672  .00002389  00000-0  24907-3 0  9997
2 23657  82.5260 122.8906 0019091 263.8534  96.0509 14.89271744540169
Epoch (UTC): 24 February 2024 13:03:06
Eccentricity: 0.0019091
inclination: 82.5260°
perigee height: 587 km
apogee height: 613 km
right ascension of ascending node: 122.8906°
argument of perigee: 263.8534°
revolutions per day: 14.89271744
mean anomaly at epoch: 96.0509°
orbit number at epoch: 54016

The dashed part of the orbit path shows where the satellite is in the earth's shadow,  

DLR